EW7837 Weather Reports


time (UTC)temp
C
wind
direction
speed
KPH
gust
KPH
rain 1hr
cm
rain 24hr
cm
rain mn
cm
humidity
%
barometer
mb
20260906023023 28 250 0.0 0.0 0.00 0.00 0.00 58 1007.7
20260906021518 28 250 0.0 0.0 0.00 0.00 0.00 56 1007.7
20260906020016 28 250 0.0 0.0 0.00 0.00 0.00 53 1007.6
20260906014524 29 250 0.0 0.0 0.00 0.00 0.00 49 1007.8
20260906013034 30 250 0.0 0.0 0.00 0.00 0.00 41 1007.9
20260906011511 31 250 0.0 0.0 0.00 0.00 0.00 35 1007.9
20260906010010 31 250 0.0 0.0 0.00 0.00 0.00 33 1007.8
20260906004509 31 250 0.0 0.0 0.00 0.00 0.00 33 1008.1
20260906003010 31 246 0.0 0.0 0.00 0.00 0.00 32 1008.1
20260906001541 31 250 0.0 0.0 0.00 0.00 0.00 35 1008.1
20260906000042 31 250 0.0 0.0 0.00 0.00 0.00 39 1007.8
20260905234527 32 250 0.0 0.0 0.00 0.00 0.00 42 1007.9
20260905233027 31 267 0.0 0.0 0.00 0.00 0.00 44 1007.9
20260905231527 32 257 0.0 0.0 0.00 0.00 0.00 42 1007.9
20260905230026 32 257 0.0 0.0 0.00 0.00 0.00 41 1007.9
20260905224505 32 254 0.0 0.0 0.00 0.00 0.00 38 1008.3
20260905223003 32 258 0.0 0.0 0.00 0.00 0.00 37 1008.4
20260905221616 32 262 0.0 0.0 0.00 0.00 0.00 35 1008.5
20260905220059 31 265 0.0 0.0 0.00 0.00 0.00 35 1008.4
20260905214601 31 240 0.0 0.0 0.00 0.00 0.00 37 1008.6
20260905213105 32 259 0.0 0.0 0.00 0.00 0.00 39 1008.5
20260905211537 32 271 0.0 0.0 0.00 0.00 0.00 34 1009.0
20260905210033 32 248 0.0 0.0 0.00 0.00 0.00 33 1009.0
20260905204528 32 221 0.0 0.0 0.00 0.00 0.00 37 1009.0
20260905203023 32 267 0.0 0.0 0.00 0.00 0.00 38 1009.2
20260905201522 32 241 0.0 0.0 0.00 0.00 0.00 37 1009.0
20260905200020 32 254 0.0 0.0 0.00 0.00 0.00 37 1009.0
20260905194514 32 266 0.0 0.0 0.00 0.00 0.00 37 1009.6
20260905193011 31 232 0.0 0.0 0.00 0.00 0.00 45 1009.8
20260905191507 31 232 0.0 0.0 0.00 0.00 0.00 46 1010.0
20260905190005 30 232 0.0 0.0 0.00 0.00 0.00 48 1010.1
20260905184501 30 232 0.0 0.0 0.00 0.00 0.00 49 1010.0
20260905183027 29 232 0.0 0.0 0.00 0.00 0.00 54 1010.5
20260905181526 28 232 0.0 0.0 0.00 0.00 0.00 57 1010.6
20260905180010 28 232 0.0 0.0 0.00 0.00 0.00 59 1010.6
20260905174517 27 232 0.0 0.0 0.00 0.00 0.00 58 1010.5
20260905173015 27 232 0.0 0.0 0.00 0.00 0.00 55 1010.1
20260905171513 26 232 0.0 0.0 0.00 0.00 0.00 53 1010.4
20260905170037 25 232 0.0 0.0 0.00 0.00 0.00 55 1010.3
20260905164534 25 232 0.0 0.0 0.00 0.00 0.00 61 1010.4
20260905163008 24 232 0.0 0.0 0.00 0.00 0.00 63 1010.0
20260905161605 24 232 0.0 0.0 0.00 0.00 0.00 67 1010.3
20260905160050 22 232 0.0 0.0 0.00 0.00 0.00 71 1010.5
20260905154552 21 232 0.0 0.0 0.00 0.00 0.00 76 1010.5
20260905153044 20 232 0.0 0.0 0.00 0.00 0.00 79 1010.4
20260905151542 20 232 0.0 0.0 0.00 0.00 0.00 79 1010.0
20260905150040 18 232 0.0 0.0 0.00 0.00 0.00 83 1010.2
20260905144538 17 232 0.0 0.0 0.00 0.00 0.00 89 1010.1
20260905143036 16 232 0.0 0.0 0.00 0.00 0.00 91 1010.1
20260905141535 16 232 0.0 0.0 0.00 0.00 0.00 91 1010.1
20260905140029 15 232 0.0 0.0 0.00 0.00 0.00 90 1009.6
20260905134529 15 232 0.0 0.0 0.00 0.00 0.00 90 1009.8
20260905133025 16 232 0.0 0.0 0.00 0.00 0.00 90 1009.6
20260905131528 15 232 0.0 0.0 0.00 0.00 0.00 91 1009.4
20260905130025 16 232 0.0 0.0 0.00 0.00 0.00 90 1009.4
20260905124524 15 232 0.0 0.0 0.00 0.00 0.00 91 1009.3
20260905123022 15 232 0.0 0.0 0.00 0.00 0.00 90 1009.1
20260905121526 15 232 0.0 0.0 0.00 0.00 0.00 90 1009.1
20260905120018 15 232 0.0 0.0 0.00 0.00 0.00 90 1009.1
20260905114518 15 232 0.0 0.0 0.00 0.00 0.00 90 1009.1
20260905113020 15 233 0.0 0.0 0.00 0.00 0.00 90 1009.4
20260905111520 15 232 0.0 0.0 0.00 0.00 0.00 90 1009.1
20260905110013 15 232 0.0 0.0 0.00 0.00 0.00 89 1009.5
20260905104516 15 232 0.0 0.0 0.00 0.00 0.00 89 1009.5
20260905103013 16 232 0.0 0.0 0.00 0.00 0.00 89 1009.5
20260905101511 16 232 0.0 0.0 0.00 0.00 0.00 89 1009.5
20260905100046 16 232 0.0 0.0 0.00 0.00 0.00 89 1009.4
20260905094547 16 232 0.0 0.0 0.00 0.00 0.00 89 1009.6
20260905093044 16 232 0.0 0.0 0.00 0.00 0.00 88 1009.6
20260905091602 16 232 0.0 0.0 0.00 0.00 0.00 89 1009.8
20260905090032 16 232 0.0 0.0 0.00 0.00 0.00 88 1010.0
20260905084539 16 232 0.0 0.0 0.00 0.00 0.00 88 1009.6
20260905083029 17 232 0.0 0.0 0.00 0.00 0.00 88 1010.1
20260905081530 17 232 0.0 0.0 0.00 0.00 0.00 88 1010.2
20260905080038 17 232 0.0 0.0 0.00 0.00 0.00 87 1010.2
20260905074530 17 232 0.0 0.0 0.00 0.00 0.00 87 1010.5
20260905073026 17 232 0.0 0.0 0.00 0.00 0.00 87 1010.2
20260905071523 17 232 0.0 0.0 0.00 0.00 0.00 87 1010.5
20260905070038 17 232 0.0 0.0 0.00 0.00 0.00 86 1010.5
20260905064518 18 232 0.0 0.0 0.00 0.00 0.00 86 1010.5
20260905063117 18 232 0.0 0.0 0.00 0.00 0.00 86 1010.5
20260905061550 18 232 0.0 0.0 0.00 0.00 0.00 86 1010.1
20260905060045 18 232 0.0 0.0 0.00 0.00 0.00 85 1010.1
20260905054532 18 232 0.0 0.0 0.00 0.00 0.00 84 1010.3
20260905053010 18 232 0.0 0.0 0.00 0.00 0.00 84 1010.4
20260905051506 18 232 0.0 0.0 0.00 0.00 0.00 83 1010.4
20260905050004 19 232 0.0 0.0 0.00 0.00 0.00 82 1010.0
20260905044601 20 232 0.0 0.0 0.00 0.00 0.00 82 1009.9
20260905044503 20 232 0.0 0.0 0.00 0.00 0.00 82 1009.9
20260905043059 20 232 0.0 0.0 0.00 0.00 0.00 81 1010.0
20260905043001 20 232 0.0 0.0 0.00 0.00 0.00 81 1010.0
20260905041527 20 232 0.0 0.0 0.00 0.00 0.00 80 1009.9
20260905040024 21 232 0.0 0.0 0.00 0.00 0.00 80 1009.8
20260905034527 21 232 0.0 0.0 0.00 0.00 0.00 80 1009.5
20260905033024 21 232 0.0 0.0 0.00 0.00 0.00 80 1009.1
20260905031517 21 232 0.0 0.0 0.00 0.00 0.00 79 1009.0
20260905030017 21 232 0.0 0.0 0.00 0.00 0.00 79 1009.2
20260905024511 21 232 0.0 0.0 0.00 0.00 0.00 79 1009.0